Location: Obersdorf
(47.4079°N, 10.2781°E)
Time: 02:58:34
(UTC+01:00)

XW-2C - Pass Details

Date: 11 December 2021
Orbit: 503 x 523 km, 97.5° (Epoch: 16 January)

Event Time Altitude Azimuth Distance (km) Brightness Sun altitude
Rises 18:22:35 0° 202° (SSW) 2,623 ? -18.4°
Reaches altitude 10° 18:25:09 10° 221° (SW) 1,747 ? -18.8°
Maximum altitude 18:27:52 19° 268° (W) 1,291 ? -19.3°
Drops below altitude 10° 18:30:38 10° 314° (NW) 1,766 ? -19.7°
Sets 18:33:14 0° 333° (NNW) 2,664 ? -20.2°
